Theta_e
302 298 293 293 291 294 295 294 295 294 295 295 294 291 290 290 292 296 297 296 297 292 292 293 294 294 296 297 299 301 302 301 301 301 301 301 301 301 302 301 302 303 303 307 309 308 307 306 305 304 303 302 302 302 300 299 298 297 296 294 293 293 293 292 290 289 288 287 287 287 286 286 286 286 286 286 286 287 286 286 286 285 284 285 284 284
301 297 291 294 294 293 293 294 294 295 296 294 292 290 290 292 290 295 295 295 297 291 290 294 293 294 295 297 299 300 300 299 299 300 301 301 301 302 302 302 302 303 305 307 306 307 306 305 305 304 302 301 300 300 299 298 297 297 296 294 294 293 292 291 290 290 289 289 289 288 288 287 286 286 285 285 286 286 286 286 285 285 284 284 284 283
296 293 294 294 294 294 293 295 294 293 292 293 290 290 289 292 294 295 295 294 294 293 290 294 292 293 295 297 298 299 299 300 301 301 302 301 301 301 302 302 302 303 303 305 306 307 306 305 304 302 302 301 301 301 299 298 297 297 295 295 294 294 293 291 291 291 290 289 290 288 287 286 286 287 286 286 286 286 285 285 285 285 284 284 283 283
292 297 294 294 294 294 296 294 294 294 294 291 291 290 289 293 289 287 295 292 295 291 290 292 289 291 295 297 298 299 300 301 302 302 303 303 301 301 302 302 302 302 303 303 304 304 306 304 303 302 301 301 301 300 299 298 297 296 296 295 294 294 293 291 291 291 291 290 289 289 288 287 285 285 286 285 285 285 284 284 284 284 284 283 283 283
295 294 293 294 294 294 294 295 293 292 291 295 294 289 289 290 291 289 290 294 294 295 293 290 288 289 295 296 297 300 300 299 300 299 299 300 301 302 303 304 305 304 304 303 303 304 304 303 302 302 302 301 300 300 299 298 297 296 296 295 294 294 293 292 291 290 290 289 288 287 287 286 285 285 284 283 283 283 284 284 283 283 284 283 282 282
296 293 293 294 293 294 293 293 295 294 290 292 295 292 291 291 290 291 292 290 289 288 289 291 284 286 294 295 295 298 300 299 300 298 300 301 301 301 300 301 303 304 306 305 304 304 305 305 304 303 302 301 300 299 300 299 298 297 296 295 295 294 293 292 292 291 290 289 288 286 285 284 283 283 283 282 283 283 283 283 284 284 283 282 282 282
296 293 294 294 295 295 294 293 294 291 290 289 288 289 290 289 289 290 289 288 286 285 290 291 284 282 292 292 295 297 296 296 299 300 300 300 300 302 302 302 302 303 303 305 306 306 305 305 306 304 302 301 300 300 301 300 298 297 296 296 295 294 293 292 291 291 290 288 288 286 286 286 285 284 285 285 285 284 283 284 283 283 283 283 281 281
296 294 293 294 293 294 293 293 295 292 288 288 288 290 289 289 288 288 287 287 286 292 293 292 290 284 285 291 294 294 294 295 296 297 298 299 300 300 301 302 303 304 304 304 305 305 305 306 306 305 304 302 302 302 301 299 299 297 296 295 295 294 293 292 291 290 289 288 287 286 286 285 285 284 284 284 284 284 283 282 282 282 282 282 281 281
296 293 293 293 293 292 292 292 292 294 288 290 288 290 288 289 289 289 288 286 288 286 284 289 292 285 285 292 291 293 292 292 293 295 296 298 299 300 300 301 301 302 303 304 303 303 303 304 306 306 305 304 303 302 301 299 298 297 296 295 295 294 293 292 291 290 289 288 288 287 286 285 285 285 284 284 284 283 283 282 282 281 281 281 281 281
294 293 295 294 292 291 294 292 292 292 290 293 289 290 289 289 289 289 287 286 287 285 282 288 290 283 284 290 292 293 292 290 290 293 295 297 299 299 301 302 302 303 303 303 303 304 304 305 305 306 305 304 304 303 302 300 299 297 296 295 294 293 293 292 290 290 289 288 288 286 286 285 285 285 284 284 283 282 282 281 281 281 280 280 280 280
293 295 295 294 293 293 292 292 291 292 293 292 293 291 292 288 288 288 287 287 285 281 284 286 288 286 281 287 290 290 289 288 291 293 295 297 299 299 299 299 299 299 301 303 303 303 304 305 305 305 303 303 303 302 301 300 298 297 296 295 294 293 293 292 290 289 288 288 287 286 286 285 284 284 283 282 282 282 281 280 281 281 280 281 280 280
295 294 294 294 295 295 293 293 293 292 291 292 291 290 290 291 288 286 286 287 281 282 282 286 286 288 279 285 291 294 291 291 292 291 293 295 297 298 298 298 299 299 300 301 302 302 303 303 304 305 303 302 302 302 300 299 298 297 296 295 294 293 292 291 291 289 288 287 287 286 286 285 285 284 283 281 281 281 281 281 280 280 280 280 280 280
294 292 293 294 293 292 294 291 293 291 293 292 292 291 285 283 285 281 284 281 283 282 283 284 286 283 284 287 292 294 295 294 294 296 296 296 297 298 299 300 300 301 300 301 301 302 302 302 302 303 304 304 302 301 300 298 298 297 296 294 293 292 292 291 290 289 288 287 286 286 285 285 285 284 283 282 281 281 281 280 280 280 279 279 279 279
290 290 294 294 292 293 292 288 289 289 293 292 289 286 284 280 278 276 280 283 283 285 284 285 285 281 286 289 293 293 294 296 295 295 296 296 297 297 298 300 300 302 302 302 302 303 303 303 303 304 304 304 304 302 301 299 297 297 295 294 293 293 293 291 290 289 288 287 287 286 285 285 284 283 282 282 281 281 281 281 280 280 279 279 279 279
284 285 292 292 290 292 291 292 290 288 289 289 292 288 286 283 279 275 279 277 279 282 285 284 282 281 282 287 294 294 297 297 297 297 297 297 298 298 299 300 300 298 298 300 301 301 301 302 302 302 303 303 304 303 301 299 298 297 295 294 293 292 292 291 290 289 288 287 287 286 286 285 284 283 282 282 282 281 280 280 280 280 279 279 279 279
287 286 291 291 292 290 291 291 290 289 289 291 291 291 286 285 287 280 282 282 281 281 281 282 281 287 287 294 296 297 297 297 297 298 297 296 297 299 300 298 297 298 298 299 299 300 300 301 301 302 302 303 303 302 301 300 298 296 295 294 293 293 292 291 290 289 288 287 286 286 285 285 284 284 283 282 282 281 281 280 280 279 279 279 279 279
286 285 292 294 289 291 290 290 290 291 283 289 289 285 287 287 286 284 285 285 282 282 279 287 286 289 293 293 295 295 295 294 295 295 294 294 295 295 295 296 296 297 297 298 299 299 299 300 300 301 302 302 302 302 301 300 299 297 296 294 293 293 292 291 290 289 288 287 286 286 285 284 284 283 282 281 281 281 281 280 280 279 279 279 279 278
283 283 292 292 290 290 291 290 292 292 292 288 285 287 291 290 287 284 278 282 281 278 280 285 282 283 284 281 293 292 291 293 293 293 293 294 294 294 295 295 296 296 297 298 298 299 300 299 299 300 301 300 300 301 300 300 300 298 296 295 294 292 291 291 289 288 288 287 286 285 285 284 283 283 282 282 281 281 280 280 279 279 278 278 278 278
287 282 289 288 290 292 290 290 291 291 293 289 288 290 285 281 280 286 283 275 275 275 277 281 284 284 285 284 288 288 289 290 292 292 292 292 293 293 294 295 295 296 297 297 297 298 299 299 298 299 299 299 299 299 300 300 299 298 296 295 294 292 291 290 289 289 288 287 286 286 284 284 283 283 282 282 281 280 279 278 278 278 278 278 278 278
291 282 285 288 289 291 289 289 285 289 290 290 293 289 292 286 284 281 283 282 281 275 276 278 282 279 286 286 288 289 290 291 291 291 292 292 293 293 294 294 295 295 296 296 297 297 298 298 298 298 299 298 298 299 298 298 298 297 296 294 293 293 292 290 289 288 287 287 286 285 284 284 283 283 282 281 280 279 278 278 278 278 278 278 278 277
287 289 280 288 291 290 286 290 286 287 285 287 287 287 288 286 287 285 285 282 280 277 277 276 275 281 287 291 290 290 291 292 292 291 292 293 293 294 294 294 295 295 296 297 297 297 297 298 298 298 299 299 299 299 299 298 297 296 295 294 293 291 291 289 289 288 287 287 285 284 283 283 283 282 282 281 280 279 278 278 278 278 278 278 277 277
286 287 282 285 286 286 287 288 287 288 289 286 286 284 286 284 281 278 277 285 280 280 277 276 274 282 289 293 292 292 293 293 293 292 292 292 293 293 294 295 295 295 296 296 296 296 297 297 297 298 298 299 299 299 298 298 296 295 294 293 292 291 290 289 289 288 287 286 285 284 283 283 283 282 281 280 279 278 278 278 278 278 278 277 277 277
287 287 284 282 285 286 288 286 287 287 288 287 288 286 288 286 285 281 275 279 282 282 279 280 276 279 290 293 293 293 293 293 293 293 292 292 293 294 295 295 296 296 296 296 296 296 296 297 297 297 297 297 298 298 297 297 295 294 293 292 291 290 289 289 289 288 287 286 284 284 283 283 282 282 281 279 279 278 278 277 277 278 277 277 277 277
286 284 283 285 288 291 286 287 286 286 287 287 288 287 286 284 285 283 281 282 279 279 278 279 276 281 291 294 293 293 293 294 294 293 292 293 294 294 295 295 295 295 295 296 296 296 296 296 296 295 295 295 295 295 296 297 295 294 292 291 291 289 289 289 288 287 286 285 284 283 283 282 282 281 280 279 279 278 277 277 277 278 277 276 276 276
283 287 285 281 282 285 286 285 285 284 286 288 286 288 286 286 282 282 282 282 277 280 280 278 273 280 289 293 293 293 293 292 292 293 293 293 293 294 294 294 295 295 295 294 295 295 295 294 294 294 294 294 294 294 294 295 295 294 292 291 290 289 289 288 288 286 285 284 283 283 282 282 281 280 280 279 278 278 277 277 277 277 276 276 276 276
284 286 284 279 276 275 275 276 278 281 284 287 289 286 283 283 283 281 279 281 277 281 282 279 278 285 289 291 292 292 291 291 292 293 294 294 294 293 294 294 294 294 294 294 294 294 293 293 293 293 293 293 293 293 293 294 295 294 292 291 290 289 288 288 287 285 284 284 283 282 282 282 281 280 280 279 278 278 277 277 277 276 276 276 275 275
285 287 285 284 282 280 282 284 288 288 286 282 284 285 285 284 284 283 282 279 277 281 280 282 282 283 285 288 289 290 290 290 290 292 292 293 293 293 294 293 293 293 293 292 292 293 292 292 292 292 292 293 292 292 292 293 294 293 292 290 289 288 288 287 286 285 284 283 283 282 282 281 281 280 279 279 278 278 277 277 276 276 275 276 275 274
285 284 285 286 285 285 286 286 287 287 283 285 284 284 286 283 281 280 279 278 284 280 276 283 285 282 283 287 288 289 290 290 291 291 292 292 292 293 293 293 292 293 293 293 293 292 292 292 292 292 292 292 292 292 292 292 293 293 291 290 289 288 287 287 285 284 283 283 282 282 282 281 281 280 279 279 278 277 277 276 276 275 275 275 274 274
284 282 282 278 281 284 285 285 286 286 285 285 285 284 284 285 284 279 280 282 283 278 277 283 284 282 284 287 289 289 290 290 291 292 293 293 293 293 293 292 292 292 292 292 292 292 292 291 292 292 292 292 292 292 292 292 293 293 291 290 289 288 286 286 284 284 283 282 282 282 283 282 281 280 279 278 277 276 276 275 275 275 274 274 274 274
283 284 284 280 280 282 283 285 287 286 285 284 284 284 285 285 285 285 283 284 283 281 283 284 284 284 286 288 289 290 292 292 292 293 293 292 292 292 292 291 291 291 291 291 291 292 292 292 292 292 292 292 292 291 292 292 292 292 292 291 290 288 287 285 284 283 283 282 282 283 282 281 280 279 279 277 276 276 275 275 274 274 274 273 273 273
282 283 281 282 280 283 286 287 286 285 284 282 284 286 286 286 285 285 284 285 285 283 284 283 283 282 288 291 291 292 292 293 293 292 291 291 292 292 291 291 291 291 291 291 292 292 292 292 292 292 291 292 292 292 292 292 292 292 293 292 290 288 287 285 284 283 283 282 283 282 282 281 280 279 278 277 276 276 275 274 274 273 273 273 273 273
282 283 283 282 280 282 286 286 286 286 285 284 283 284 285 284 283 285 284 285 283 282 284 284 282 283 289 292 291 291 292 292 291 291 290 290 291 291 291 290 290 290 291 291 291 291 291 291 291 291 291 292 292 292 292 292 292 292 292 292 291 289 288 285 284 283 283 283 282 282 281 280 279 278 277 276 276 275 275 274 274 273 273 272 272 272
283 283 282 283 279 280 286 286 285 284 283 282 284 285 286 285 286 287 287 287 286 287 283 281 283 288 290 290 289 290 291 291 291 290 290 290 291 291 291 290 290 290 290 290 291 291 291 291 291 291 291 292 292 292 292 292 292 291 291 291 291 291 286 285 284 283 283 283 282 281 281 280 279 278 277 276 276 275 274 274 273 272 272 272 272 272
278 281 282 284 278 280 284 284 285 282 277 278 289 291 289 285 286 284 284 287 288 288 286 288 288 290 290 289 289 289 290 290 290 291 291 290 290 291 291 290 290 290 290 291 291 291 291 291 291 292 292 292 293 293 293 293 292 291 291 290 290 289 287 285 284 284 283 283 282 281 281 280 278 277 277 276 275 274 274 273 272 272 272 272 272 271
281 282 283 283 278 279 282 282 279 274 277 288 291 291 291 290 288 286 287 287 288 290 290 289 290 289 289 290 291 291 291 291 291 290 290 292 292 292 290 290 290 290 290 290 290 291 291 291 291 291 291 292 292 292 293 292 292 292 290 290 289 288 287 286 284 284 283 283 283 282 280 280 279 277 276 276 274 274 273 273 272 272 271 271 271 271
283 282 284 281 282 282 280 280 272 276 285 289 289 290 291 288 287 287 285 288 290 289 289 288 288 289 290 290 291 292 291 290 290 291 292 293 293 290 290 289 290 290 290 290 290 291 291 291 291 291 291 292 292 292 292 292 292 291 290 290 288 287 286 285 284 283 283 283 283 281 280 279 278 277 276 275 274 273 272 272 272 271 271 271 271 271
283 282 282 280 284 276 279 278 278 284 284 287 287 289 287 285 285 284 279 283 289 290 290 288 288 289 290 290 291 291 290 289 288 289 293 292 291 291 290 290 291 291 291 291 291 291 292 292 291 291 292 291 292 292 292 292 292 291 290 289 288 288 287 285 284 284 283 283 283 282 280 278 277 276 275 274 273 272 272 271 271 271 271 270 270 270
284 281 284 279 279 282 277 276 277 277 275 282 290 291 290 289 289 289 285 282 290 291 290 289 288 289 289 290 289 289 289 285 284 286 291 290 290 290 291 292 292 291 291 291 292 292 291 292 291 291 291 291 291 292 293 292 292 291 290 289 288 288 287 286 285 284 284 284 283 282 280 279 277 276 274 273 272 272 272 272 272 271 271 270 270 270
283 284 282 280 279 280 278 275 275 273 278 285 288 290 291 289 290 289 285 280 288 289 291 290 289 289 289 288 288 288 285 281 282 286 289 289 289 290 289 290 290 291 291 291 291 290 291 291 291 291 291 291 291 292 292 292 291 290 289 289 288 288 287 286 285 285 285 285 284 282 280 279 277 276 275 273 273 272 271 271 271 271 271 270 270 270
281 282 282 279 277 279 278 276 275 279 279 287 290 290 289 291 290 286 276 278 289 290 291 290 289 289 289 289 288 286 284 280 282 285 288 288 289 289 289 288 288 289 290 291 291 291 291 291 291 290 291 290 291 292 292 292 291 290 289 289 288 287 287 287 287 287 286 286 284 281 280 278 277 276 274 274 273 272 272 272 271 271 270 270 270 269
282 281 281 278 280 280 279 278 280 281 288 291 290 290 289 291 287 279 275 282 290 290 291 291 290 290 290 287 287 283 285 286 286 287 288 289 288 288 289 290 290 290 289 290 290 289 290 290 290 290 290 291 292 292 292 291 290 289 289 289 288 287 288 289 289 288 287 286 283 282 280 278 277 276 275 274 273 272 272 271 271 270 269 269 269 269
283 280 280 279 277 277 279 278 278 281 287 290 289 290 291 287 278 277 286 291 291 290 291 291 290 290 288 286 285 285 286 287 287 288 287 287 286 287 287 288 288 289 290 290 289 289 289 289 290 290 290 291 291 292 292 291 290 289 289 289 288 288 290 290 290 288 287 286 283 281 279 278 277 276 275 273 272 271 271 271 270 269 269 269 268 268
282 280 280 280 283 282 280 276 276 273 285 289 292 289 290 282 283 289 290 291 291 290 289 288 288 286 286 284 286 285 285 285 285 285 285 286 286 286 286 286 286 286 287 287 288 288 288 288 288 288 289 290 291 291 291 290 289 289 289 288 289 290 290 289 289 288 287 285 283 282 280 279 277 275 274 273 272 271 270 270 269 268 268 268 268 267
286 280 281 282 286 278 278 276 277 284 288 293 290 284 289 289 291 289 288 287 289 288 286 286 286 286 286 284 284 283 284 284 284 285 285 285 285 285 286 286 286 286 286 287 287 287 288 287 288 288 289 290 290 291 291 290 289 289 288 289 290 290 290 289 289 288 286 284 284 284 283 280 277 276 274 272 271 270 269 268 268 267 267 267 267 266
287 284 285 281 285 282 280 283 288 290 291 292 292 291 290 290 290 288 288 287 286 286 288 285 285 285 285 284 283 283 282 283 283 284 283 283 284 284 284 284 285 285 285 285 286 287 287 287 287 287 288 289 289 290 290 290 289 288 288 290 290 290 289 288 288 287 285 285 284 284 283 281 278 275 273 272 271 270 268 267 267 266 266 266 266 266
290 290 288 285 284 289 290 290 292 291 290 289 292 290 289 289 289 288 287 285 286 286 286 284 284 284 284 284 282 282 282 283 283 283 283 283 283 284 284 284 285 285 285 286 286 287 287 287 287 287 287 288 289 289 290 290 290 288 289 290 290 290 289 288 286 285 284 284 284 283 283 280 278 275 273 271 270 270 269 268 266 265 265 266 266 266
288 287 287 283 286 284 280 290 287 285 288 290 289 290 289 288 288 287 285 286 285 285 285 285 285 284 284 284 283 282 282 283 282 282 283 283 283 283 284 284 284 285 285 285 286 287 287 287 287 287 287 287 288 289 290 290 290 290 290 290 290 290 288 287 286 284 284 284 284 284 283 280 277 273 271 270 270 270 269 268 267 266 265 265 265 265
285 289 285 286 285 283 283 287 284 285 286 289 288 287 286 286 287 286 286 286 286 285 285 285 285 284 284 282 283 282 282 282 282 282 282 283 283 284 284 284 285 285 286 287 287 287 287 287 287 287 287 287 288 289 289 289 289 290 290 290 290 288 287 286 285 285 284 284 284 283 281 279 273 271 270 269 269 268 268 267 267 266 265 265 265 265
286 288 282 284 282 285 288 286 283 283 284 284 285 286 286 286 286 285 285 285 285 284 284 285 285 284 283 282 283 282 281 282 283 283 282 283 283 284 284 285 285 286 286 286 287 287 287 287 287 287 287 287 288 288 289 289 289 290 289 289 289 288 286 286 284 284 284 284 283 282 280 278 275 272 271 269 268 268 268 267 267 267 267 267 267 267
286 281 284 283 280 279 280 279 281 276 275 280 283 285 285 285 285 284 284 284 283 283 283 282 283 284 283 283 283 283 282 282 283 284 283 283 284 284 285 285 285 286 286 287 287 287 287 287 287 286 286 287 287 288 288 288 289 289 289 289 288 287 286 285 285 284 284 284 283 281 280 277 275 272 271 270 268 268 267 268 270 269 268 267 269 271
282 283 282 278 277 276 280 281 282 281 280 281 282 284 284 285 284 283 282 282 283 283 283 282 282 282 283 284 285 284 283 283 283 284 284 284 284 285 285 286 285 285 286 286 286 286 286 286 287 286 286 286 287 287 287 287 288 288 288 288 288 287 286 286 285 284 283 283 282 281 279 276 274 272 270 270 269 267 266 266 268 272 272 271 270 271
Wind_Speed
3 1 1 2 3 4 3 4 4 4 5 7 6 5 6 9 11 10 3 4 2 5 12 15 17 19 21 20 19 18 17 17 16 16 15 13 12 12 11 12 12 12 12 7 4 4 6 6 7 7 7 8 9 10 11 12 12 12 11 11 11 10 10 9 8 8 7 7 7 7 8 7 7 7 7 7 7 6 6 5 5 5 5 5 4 5
2 2 2 3 4 3 4 3 3 4 4 5 7 5 6 8 8 7 4 4 1 1 8 10 17 22 20 20 21 19 18 20 18 17 17 16 15 12 13 14 14 12 8 6 6 7 7 6 7 7 7 9 11 11 12 13 13 12 13 12 11 10 10 10 9 8 8 8 7 6 6 6 6 6 6 7 7 7 6 6 6 5 5 5 5 5
1 2 3 4 3 1 1 1 1 3 6 6 4 5 5 4 6 8 4 1 1 3 10 10 13 20 20 21 22 20 19 17 15 15 15 15 15 13 12 13 13 11 10 9 9 7 7 8 8 8 7 8 10 11 12 12 13 13 12 12 11 10 10 10 10 8 8 7 7 6 5 5 5 5 5 5 4 4 5 6 6 6 5 5 5 5
1 4 4 2 1 3 1 0 3 5 6 6 4 4 5 7 5 4 1 2 3 4 9 11 13 18 22 18 19 18 14 13 11 9 9 9 12 13 12 11 10 11 10 10 10 9 7 8 8 8 8 8 9 10 11 12 14 11 12 12 12 11 11 10 10 9 8 7 5 5 5 5 5 5 5 5 6 6 7 7 7 6 5 5 4 5
3 4 2 1 0 3 4 3 4 4 4 7 7 4 5 7 8 5 8 11 12 10 5 10 11 13 14 8 3 2 1 2 5 6 8 9 11 11 9 6 5 9 9 9 11 10 7 8 8 9 9 8 9 10 11 12 12 10 14 13 13 11 11 10 10 10 8 7 6 5 5 5 7 7 7 7 8 8 7 5 6 6 6 5 5 5
4 3 1 1 0 1 4 5 3 5 4 6 3 4 6 9 10 11 11 12 9 4 5 5 9 6 2 5 10 3 2 4 4 4 7 7 7 8 9 10 10 8 7 9 11 11 10 7 7 8 9 9 10 11 12 12 13 13 12 13 13 11 10 10 11 11 9 8 7 6 6 7 7 7 7 7 7 6 6 6 5 4 5 5 5 5
2 2 1 1 3 3 4 6 3 1 5 7 1 5 5 7 8 9 10 5 6 7 2 1 5 12 11 10 6 4 6 8 4 5 5 6 5 4 4 5 7 8 9 8 8 7 8 8 7 8 9 10 11 11 10 11 12 14 12 13 13 12 10 10 11 12 9 9 8 9 8 8 7 7 6 5 5 4 4 4 5 4 5 6 6 5
2 2 2 2 4 5 5 6 3 1 3 5 3 4 6 8 8 9 5 4 8 8 12 7 8 7 11 10 3 3 6 7 8 8 8 7 7 6 5 5 6 8 9 9 9 9 9 8 8 8 8 9 10 9 9 10 11 14 14 13 14 11 11 10 10 12 11 9 9 9 9 8 8 8 7 6 5 5 4 5 5 5 4 5 6 5
2 1 3 2 4 5 5 4 2 0 2 4 3 5 8 7 10 8 5 6 7 5 8 5 6 5 5 3 6 2 5 9 9 10 9 8 8 6 6 6 7 8 8 9 10 10 11 10 7 6 6 7 8 8 9 10 10 11 12 13 13 13 12 11 13 12 12 10 9 9 8 8 7 7 6 5 5 5 5 6 5 5 5 5 5 6
1 2 2 3 2 5 5 3 3 1 5 2 6 5 7 7 7 7 4 5 4 3 7 2 4 5 10 11 7 4 2 7 7 11 9 8 8 7 7 7 7 8 9 9 9 9 10 9 9 7 7 7 7 8 9 9 9 10 11 13 14 15 12 12 14 13 13 12 9 9 9 10 8 6 6 6 6 6 6 6 6 5 5 5 4 5
3 3 1 2 3 5 6 2 1 4 7 6 8 9 8 8 7 6 5 3 3 5 2 7 1 4 5 10 9 6 3 2 5 9 10 9 7 7 8 11 12 12 11 10 11 11 11 9 9 8 9 9 8 7 8 9 10 10 11 13 15 16 12 13 13 14 14 12 11 10 10 10 10 9 7 6 7 6 7 6 6 5 5 4 4 4
3 2 3 1 1 3 2 7 5 2 2 4 5 7 10 8 6 4 3 2 3 3 4 3 2 3 6 7 8 3 2 1 2 5 10 11 10 6 8 10 11 12 11 10 10 11 12 12 11 8 9 9 9 8 9 9 10 11 11 12 15 15 15 13 13 14 13 12 11 10 11 10 10 9 7 8 8 8 7 7 6 5 5 5 5 5
3 3 3 3 2 1 3 7 3 3 4 5 6 7 8 9 6 5 2 4 4 5 3 2 3 6 10 9 11 14 11 4 0 4 7 9 9 8 6 11 11 11 11 10 10 10 10 10 11 11 11 8 8 9 11 11 10 11 12 14 15 16 15 14 13 14 14 13 12 11 10 10 8 9 9 8 8 7 7 6 6 6 5 5 5 5
2 2 2 3 2 2 3 5 6 2 3 5 6 5 6 7 6 9 8 6 8 3 6 2 3 8 14 12 12 10 7 7 6 5 5 6 8 9 11 9 11 10 10 10 10 9 10 10 10 10 10 10 8 9 10 10 11 10 10 13 15 15 15 13 13 14 14 13 12 11 10 9 8 8 8 8 7 7 7 6 6 6 5 5 5 5
6 4 3 3 2 3 3 4 4 7 9 7 2 4 3 4 4 8 7 10 9 11 6 2 4 3 4 4 9 12 9 6 6 4 3 3 3 5 6 8 9 11 13 12 11 12 12 12 13 11 10 9 9 9 9 8 10 10 11 12 15 14 15 15 14 13 13 12 12 10 10 9 7 8 7 7 7 7 7 7 6 6 5 5 5 5
2 8 2 2 2 0 3 2 1 4 9 2 3 3 3 2 3 8 9 11 7 10 10 2 4 4 7 11 14 7 7 8 3 3 3 8 10 6 5 10 13 13 14 14 13 13 13 14 13 11 10 10 9 9 8 9 9 10 11 12 13 14 14 14 14 13 12 12 10 11 11 10 9 7 7 6 7 7 7 7 6 6 6 5 5 5
7 5 4 3 2 2 1 1 1 2 3 5 5 3 5 2 2 7 11 4 2 6 10 7 6 7 7 8 6 6 9 10 11 13 13 16 14 14 12 12 14 15 16 16 17 14 16 16 15 13 12 11 10 8 8 9 9 11 11 11 12 13 13 14 14 13 12 12 11 11 11 10 9 9 9 8 8 8 7 7 6 6 6 6 5 5
3 12 14 8 3 3 2 2 2 3 1 3 4 5 9 2 0 3 6 6 8 10 10 8 11 10 8 7 3 8 15 13 12 12 16 15 15 14 13 14 15 17 19 19 19 17 15 16 17 15 12 12 12 11 10 10 9 9 10 11 12 12 14 14 13 13 12 12 12 11 11 11 10 9 9 8 8 8 7 7 6 6 6 6 6 5
2 8 3 4 3 2 2 2 6 4 2 3 4 2 5 4 5 2 4 8 8 9 10 9 11 12 7 6 6 11 19 18 13 16 16 15 14 15 15 17 18 19 18 17 18 17 15 15 16 15 14 13 12 11 10 9 9 9 9 10 11 13 13 13 11 11 10 11 9 9 10 11 10 9 8 8 8 7 7 8 7 7 7 6 6 6
3 4 3 2 2 0 3 1 5 2 5 3 2 4 1 2 5 6 3 3 5 12 10 9 8 13 7 4 8 20 20 17 15 17 17 17 16 15 15 16 18 19 19 18 17 17 17 16 17 15 13 12 12 11 9 8 7 9 9 9 10 10 10 11 12 12 12 12 10 9 9 10 10 9 9 8 8 8 8 8 8 8 7 7 6 6
2 1 6 3 4 3 4 1 6 6 5 1 2 2 2 2 1 2 4 6 6 9 9 10 10 9 13 9 15 19 19 14 15 18 17 16 16 17 17 17 18 19 18 17 17 17 17 17 16 15 12 10 9 7 7 6 7 8 8 9 10 11 11 12 12 12 11 11 11 11 11 10 10 10 9 9 9 8 8 8 8 8 7 6 7 6
3 5 8 12 11 7 6 4 3 4 3 3 3 4 4 7 7 8 9 3 3 4 7 8 11 12 17 12 15 15 13 15 16 15 16 18 20 20 19 19 19 18 17 17 17 18 16 16 17 17 14 9 7 7 7 6 6 7 8 8 8 9 10 11 11 11 11 10 10 11 11 10 9 9 9 9 9 9 8 8 8 8 7 7 7 6
2 4 5 8 8 12 5 6 4 3 1 3 3 3 1 3 3 4 9 7 4 3 2 6 8 13 13 11 13 12 13 15 15 15 16 17 20 21 20 20 19 18 17 17 17 17 17 17 18 17 18 16 11 7 7 6 6 6 7 8 8 9 10 10 9 9 10 10 10 11 10 10 10 10 10 10 9 9 9 8 9 8 8 7 6 6
2 3 5 9 10 7 8 5 6 4 1 2 5 5 2 4 2 6 7 4 6 11 9 7 8 11 13 10 13 15 17 16 12 14 17 18 18 19 21 20 19 18 18 18 15 13 15 15 15 15 16 16 15 16 13 6 5 5 6 7 8 9 10 10 9 9 10 9 10 11 11 11 10 11 11 11 9 10 10 9 8 8 8 7 6 6
3 1 4 8 7 6 1 4 4 2 2 3 6 3 4 1 3 0 1 2 5 10 13 10 12 10 11 12 14 17 18 16 15 15 16 18 17 18 19 18 17 18 17 17 18 17 16 16 16 16 16 16 16 15 16 13 6 5 6 6 7 8 9 9 9 9 10 10 11 11 11 12 11 11 12 11 10 11 11 10 9 8 8 7 7 7
3 6 4 4 8 10 11 11 12 13 10 10 8 2 3 5 4 1 5 2 7 7 8 7 11 13 16 17 18 18 18 16 15 17 18 16 17 18 17 17 17 16 15 17 18 16 17 15 14 15 15 14 14 14 14 13 6 5 5 6 7 7 7 9 9 9 10 9 10 11 12 12 12 12 12 12 11 11 11 10 10 9 8 8 8 7
2 4 5 4 4 7 9 8 11 10 12 9 16 14 8 3 3 3 4 6 8 8 10 13 13 17 20 19 20 20 18 17 17 20 20 20 20 19 16 15 14 15 15 16 16 15 15 16 17 16 16 14 14 14 13 14 12 7 5 6 6 7 8 8 8 9 10 10 11 11 12 12 12 11 12 11 11 10 10 10 10 9 9 8 8 7
2 4 3 7 7 10 13 15 16 13 14 16 15 15 10 4 7 6 5 8 6 9 13 10 14 13 19 20 20 21 18 16 18 19 19 19 20 19 16 16 17 16 16 15 16 17 17 18 18 18 16 15 15 14 13 12 13 10 6 5 5 6 7 6 8 10 11 11 12 12 12 12 12 12 11 11 11 11 11 10 10 9 8 8 8 8
3 4 1 4 7 8 14 16 17 14 13 15 14 14 14 10 7 7 9 14 10 7 12 17 20 19 20 20 21 19 14 14 18 19 18 18 19 19 17 17 17 17 17 18 18 17 16 17 17 18 17 15 15 16 15 14 14 11 6 5 5 6 8 8 9 10 11 11 12 13 12 11 11 10 11 11 11 11 11 11 10 9 8 8 7 6
2 5 2 1 8 12 15 16 13 12 13 14 11 14 16 13 10 11 13 13 12 14 18 18 21 23 21 20 20 15 12 15 15 15 16 19 20 17 16 17 17 17 18 18 18 18 16 17 17 16 17 16 16 16 16 14 13 13 11 5 5 6 7 7 9 10 11 12 13 12 12 12 11 11 11 12 12 11 11 10 10 9 9 9 8 7
1 2 6 4 6 12 10 9 5 9 12 15 15 14 13 11 13 11 7 11 11 15 18 19 20 20 17 16 13 11 14 13 16 17 17 18 19 17 16 16 16 17 18 18 18 18 18 17 17 17 17 17 17 17 16 15 15 14 14 8 6 7 7 8 9 10 11 13 12 11 12 11 12 11 12 12 11 11 12 11 10 9 9 8 8 8
0 3 1 2 7 12 7 11 13 15 15 13 14 14 12 12 10 4 3 7 5 9 11 13 12 11 12 12 13 15 15 16 17 17 16 18 17 16 15 15 16 17 18 18 18 18 18 18 18 18 18 18 17 16 15 16 15 14 14 13 11 7 6 8 9 10 11 12 11 11 12 11 12 12 12 12 12 12 12 11 11 10 10 9 9 8
1 4 6 5 9 9 11 14 16 19 11 5 3 6 10 13 12 10 9 8 11 10 11 9 11 14 15 13 16 18 19 20 19 16 15 18 17 15 14 14 16 18 18 19 18 18 18 17 17 18 18 17 15 15 16 15 14 13 14 15 14 10 6 8 9 10 11 11 11 11 10 11 11 12 12 12 12 11 11 11 11 11 10 10 9 8
1 2 5 1 3 10 16 17 17 9 5 8 3 4 6 11 10 10 10 8 11 10 10 12 15 16 15 14 16 19 20 19 17 17 15 17 16 13 12 14 16 17 18 18 18 17 18 16 16 16 17 17 17 16 15 13 12 11 11 11 12 11 8 7 9 10 11 12 12 11 11 11 11 11 11 11 12 12 12 12 12 11 10 9 9 8
2 2 4 0 3 7 11 11 9 9 5 10 11 13 8 8 8 12 15 15 16 15 17 18 16 14 13 15 16 18 18 18 16 17 20 20 14 9 13 17 17 18 19 18 19 19 17 18 18 18 18 17 17 16 13 13 11 12 12 11 11 9 10 9 9 10 11 12 11 10 10 11 11 11 11 11 11 11 12 13 12 12 10 9 10 9
3 2 3 3 5 7 5 3 4 6 12 19 20 8 4 3 7 10 16 13 11 13 15 14 11 12 15 18 18 16 15 15 15 14 18 15 7 13 16 16 19 19 19 18 18 18 18 18 18 18 18 17 15 15 12 12 12 12 12 9 10 10 9 9 9 10 10 11 11 11 11 11 11 11 11 11 11 12 13 13 13 12 11 9 9 8
6 4 2 6 2 4 5 8 10 16 17 15 9 2 4 2 4 6 11 16 14 16 7 5 11 14 17 17 16 15 13 13 14 11 9 11 18 19 19 18 18 19 18 18 18 18 18 18 18 18 17 18 16 15 13 12 12 13 12 11 9 10 9 8 9 11 11 11 11 11 11 11 11 11 11 12 12 12 11 12 12 11 10 10 9 9
6 5 3 2 3 2 6 9 8 7 7 6 6 6 7 2 1 2 4 15 11 3 1 9 14 16 17 17 16 14 12 13 14 11 9 17 20 21 20 18 17 17 18 18 18 18 17 16 18 20 17 18 18 16 13 12 12 12 12 11 9 9 10 10 11 11 11 12 12 11 12 11 11 12 12 10 12 11 10 10 9 10 9 10 10 9
5 5 4 4 7 6 6 7 6 4 9 14 11 5 3 4 0 4 5 12 2 2 7 9 15 16 16 15 15 12 11 12 13 12 14 20 20 18 19 19 18 17 17 18 18 18 18 18 19 18 17 18 18 17 16 14 13 12 12 11 10 9 10 10 11 11 12 12 12 10 10 10 10 9 11 10 8 8 9 10 10 9 8 8 8 8
4 5 4 6 7 6 6 6 7 3 7 8 12 6 3 4 3 4 11 6 5 10 13 12 14 16 15 13 12 12 11 13 15 15 19 20 20 19 19 20 21 21 19 19 18 18 17 17 17 18 18 18 19 18 18 16 13 13 12 10 9 9 10 12 12 11 11 11 10 9 9 8 12 11 12 12 10 9 9 6 7 8 8 7 6 6
3 3 6 8 7 6 7 8 7 9 11 12 6 6 4 2 3 6 11 11 14 19 19 15 15 16 13 13 12 12 12 14 17 19 19 19 20 21 21 21 21 21 21 21 20 19 17 17 17 18 19 17 17 17 17 15 14 13 12 11 10 11 12 14 13 12 12 11 9 9 9 7 11 12 12 12 12 7 8 6 8 7 6 6 5 5
2 2 2 1 5 7 6 8 8 9 12 9 2 1 2 3 8 14 14 19 21 20 18 17 18 18 17 17 15 14 15 18 19 19 20 22 21 21 21 21 22 23 23 23 23 22 19 18 18 20 21 20 20 17 15 15 15 14 12 11 11 11 12 13 13 12 12 11 10 8 7 6 8 11 11 10 10 10 8 6 6 5 6 5 6 7
3 1 5 5 3 2 2 4 7 8 2 1 3 3 4 8 15 18 20 19 18 19 20 19 18 18 18 18 19 19 20 20 21 21 22 22 22 22 22 22 21 22 22 23 23 23 23 21 21 20 20 19 20 18 16 16 18 17 15 13 14 13 12 13 13 12 12 11 9 8 8 9 11 10 9 10 11 11 10 8 7 7 6 8 7 8
1 4 5 5 2 10 9 6 4 8 13 4 14 14 16 18 19 18 16 16 16 15 16 15 15 17 18 18 20 20 20 21 21 22 23 22 23 22 22 22 22 22 22 21 20 21 21 21 20 20 20 20 20 19 18 16 17 16 16 17 14 12 11 11 11 11 10 9 10 11 9 8 9 10 10 11 11 10 10 11 9 7 7 7 7 7
9 4 2 9 3 5 9 11 15 18 19 18 19 18 18 19 17 19 18 16 16 14 15 13 16 17 17 18 18 18 18 17 20 20 20 20 21 21 22 22 22 22 21 22 21 21 20 20 22 21 20 19 21 21 20 18 18 18 19 17 15 12 11 12 11 9 10 11 11 11 10 8 7 9 10 12 11 11 11 11 12 9 6 7 7 8
5 2 3 3 7 10 16 17 16 14 17 20 15 15 18 20 18 17 19 17 15 15 14 14 16 16 17 16 17 16 15 18 19 19 20 20 20 20 20 21 21 21 21 21 22 22 21 21 22 22 22 21 22 22 21 20 19 18 19 16 14 12 11 10 11 11 11 11 11 11 9 8 7 8 11 10 8 11 11 14 11 8 8 8 8 8
5 7 4 6 10 12 9 8 16 21 21 19 16 16 16 18 17 15 14 14 15 15 15 14 16 16 16 17 17 18 19 19 20 20 19 18 18 19 21 21 21 21 21 22 23 23 22 22 22 23 23 23 23 21 19 20 20 19 17 15 14 13 11 12 11 12 11 11 11 10 8 8 5 4 6 7 6 8 10 10 9 10 9 9 9 9
3 7 11 12 15 12 16 14 19 22 18 16 18 18 19 19 18 15 14 13 15 14 14 16 16 16 16 18 18 19 20 19 20 19 18 17 18 17 18 19 22 22 22 22 23 24 23 23 24 24 25 23 23 21 20 20 19 18 17 15 14 12 11 11 11 11 11 12 12 10 8 7 8 8 6 8 9 9 8 8 11 13 13 12 11 11
11 8 6 14 13 14 14 18 25 24 19 21 24 20 19 19 18 18 17 17 17 18 18 17 17 19 19 19 19 19 20 19 19 19 19 19 19 18 18 20 22 23 23 23 22 22 21 22 23 24 23 23 22 22 21 20 19 18 17 16 13 12 12 12 12 12 11 11 9 10 7 6 6 7 7 7 8 7 9 14 13 12 11 7 6 9
8 8 11 11 10 11 12 17 20 17 17 18 17 20 21 20 17 18 19 19 19 20 19 21 21 20 19 19 19 19 21 20 20 21 21 19 19 21 22 23 23 23 23 22 20 22 23 21 22 23 23 21 20 20 20 19 19 18 17 14 13 12 13 13 12 11 11 11 10 9 7 6 5 7 8 9 9 10 7 10 15 11 11 10 13 16
8 11 10 8 9 11 14 16 14 14 15 15 20 18 18 17 16 17 20 20 19 18 20 22 22 21 21 20 17 19 21 22 23 23 24 22 22 21 21 23 22 21 22 22 22 22 22 23 22 21 22 21 20 19 19 18 18 17 16 15 14 13 13 12 11 10 9 9 7 8 7 4 5 5 7 8 9 8 9 7 11 20 20 14 15 19
Wind_Direction
312 262 15 10 33 6 6 359 346 327 325 294 284 280 284 286 283 278 258 91 127 276 259 260 265 267 269 269 268 266 268 267 259 242 244 245 245 249 251 254 254 257 263 265 232 203 189 191 194 197 196 204 204 205 202 200 200 199 196 188 192 187 189 189 190 194 197 206 213 219 225 232 226 222 219 216 217 221 222 220 216 231 238 242 246 257
283 277 55 23 10 347 342 337 316 299 274 293 290 280 284 278 277 307 308 116 182 273 280 289 288 278 272 272 270 268 265 261 257 244 242 242 242 241 245 250 252 255 258 231 218 208 197 198 192 190 197 198 204 204 202 204 203 200 200 199 196 189 192 196 194 195 200 207 214 218 220 227 234 225 219 229 228 212 214 213 222 227 234 230 241 254
223 43 76 41 34 42 317 304 300 298 303 278 268 289 291 296 335 290 83 93 218 232 271 292 299 289 283 277 274 268 262 264 261 257 250 254 251 242 241 244 249 250 251 245 242 224 198 185 188 192 199 205 212 208 206 207 205 204 204 205 200 197 194 196 198 198 200 204 210 219 234 241 243 238 240 246 239 227 222 222 216 222 228 229 236 244
280 108 61 49 22 300 197 205 304 288 253 266 267 264 290 341 343 312 120 139 233 214 287 314 304 284 284 276 265 263 260 266 272 277 279 282 271 253 236 244 248 246 252 259 272 267 202 185 186 195 203 208 207 211 210 207 207 205 207 206 201 201 196 195 195 195 200 206 203 202 231 253 252 251 250 236 231 230 223 225 220 216 214 219 240 248
29 66 58 115 313 346 319 310 295 284 289 231 234 272 284 318 316 293 306 312 302 245 285 281 265 264 265 276 293 155 46 281 277 271 271 259 255 265 289 294 238 244 251 265 277 278 267 186 198 200 202 201 207 210 210 205 204 206 207 203 200 200 197 195 191 188 190 190 198 203 219 238 246 249 243 242 240 226 219 217 221 218 207 215 235 245
114 77 177 243 291 320 324 291 235 294 288 304 147 359 330 321 312 306 310 323 314 271 161 285 334 297 24 335 302 320 189 254 172 235 259 255 233 231 239 247 248 243 249 266 269 275 280 251 207 200 198 204 211 214 213 208 208 205 205 202 200 198 198 195 191 186 186 190 192 195 204 215 219 225 216 220 223 215 201 209 207 199 207 222 232 241
42 124 259 343 334 314 279 276 298 87 300 297 57 338 343 323 302 300 302 327 295 308 115 206 303 292 305 304 326 14 328 307 300 253 286 315 296 224 244 269 274 276 275 256 251 263 260 247 223 210 206 209 215 219 211 210 211 209 206 201 197 197 198 193 191 184 186 191 199 203 213 227 235 243 239 228 222 221 233 233 228 227 222 218 226 239
155 141 180 219 279 275 277 279 112 275 311 288 74 323 314 301 296 289 291 256 260 293 288 192 229 268 298 315 107 81 310 360 18 16 14 18 15 6 347 331 319 308 308 311 302 292 282 268 245 236 220 213 220 217 210 212 209 208 207 200 198 197 198 192 187 185 186 192 197 204 215 226 235 238 244 241 233 222 222 230 232 231 231 219 219 232
287 263 214 244 252 265 282 30 10 297 250 310 8 354 306 292 284 281 267 266 278 315 302 158 213 241 258 302 117 294 19 16 7 351 341 347 358 2 2 4 351 341 330 317 309 306 307 300 282 264 250 239 229 218 213 210 209 208 207 205 202 202 198 193 187 184 187 192 195 199 209 222 228 234 239 237 230 230 230 234 234 232 227 225 225 228
358 15 23 304 284 298 32 8 11 196 271 68 335 281 261 264 250 252 254 266 271 276 280 176 178 273 294 310 315 144 69 8 358 341 328 342 348 6 14 5 354 352 345 334 322 317 311 302 291 281 273 255 241 225 217 214 211 209 207 206 205 204 199 194 187 187 188 191 194 200 208 217 223 220 222 222 225 224 226 233 233 237 234 232 228 225
83 68 356 258 298 358 328 337 226 254 272 323 286 284 266 225 229 208 249 261 278 248 251 66 23 329 302 305 322 335 6 352 340 323 322 329 352 24 26 28 16 1 347 337 328 319 312 301 281 266 258 254 247 228 218 215 214 212 209 209 209 207 200 195 190 188 190 190 194 201 207 215 221 223 223 223 224 223 225 228 230 225 231 228 230 234
130 145 215 102 301 275 278 290 170 225 291 298 293 300 304 285 172 245 241 223 260 287 94 352 76 332 289 289 307 77 175 186 283 303 309 327 338 3 24 33 22 359 342 329 326 323 320 316 304 270 251 252 245 232 220 216 215 215 212 210 211 208 203 198 192 189 192 191 195 200 206 213 216 218 219 223 228 227 228 228 233 236 235 230 229 230
197 173 95 136 182 147 276 297 181 166 195 222 272 280 318 315 321 307 237 264 259 308 121 128 313 285 231 248 277 293 299 331 47 284 317 322 321 318 345 7 8 354 329 321 319 315 308 304 302 301 288 260 235 231 223 217 213 215 216 213 212 212 203 198 193 191 193 192 194 197 204 212 215 218 220 221 225 225 226 227 230 229 227 229 232 227
351 116 224 146 142 168 274 320 317 264 176 295 306 338 311 326 330 298 302 292 287 126 184 126 72 259 266 277 275 284 325 5 0 358 338 329 327 326 325 328 322 317 316 317 314 305 300 297 295 291 287 278 256 238 231 220 214 214 216 216 215 214 202 198 195 195 194 196 195 195 200 206 210 216 217 222 223 225 225 225 228 224 228 237 240 241
328 351 145 222 353 87 266 307 350 291 319 306 357 266 331 301 295 300 304 311 312 304 332 134 312 253 320 14 351 327 353 29 48 46 36 352 305 307 299 289 284 316 336 326 315 310 307 302 299 295 287 277 268 260 244 227 223 216 220 217 216 213 206 199 198 195 194 194 195 193 197 203 206 212 213 216 221 221 221 223 223 224 229 236 238 234
339 264 47 71 45 26 305 82 339 335 279 230 344 318 263 309 339 278 305 302 310 316 308 182 212 300 293 323 309 7 62 65 88 78 63 16 6 332 313 334 333 330 330 329 314 305 306 306 302 296 288 279 270 267 259 242 230 223 224 221 218 215 207 201 197 196 192 192 192 195 197 200 204 209 212 218 217 220 219 220 220 223 227 232 236 237
330 290 111 149 133 260 20 121 194 304 311 27 297 324 16 284 279 289 280 256 329 248 248 258 275 283 313 318 44 76 52 18 12 10 6 349 346 342 339 333 332 334 329 322 316 313 318 320 315 307 302 297 289 273 252 245 233 228 226 222 221 216 211 203 199 195 189 190 190 194 196 197 200 206 211 215 217 216 218 215 215 222 228 228 228 237
320 292 288 273 287 119 285 221 320 276 339 311 289 13 303 168 318 280 299 306 284 289 298 319 314 315 332 327 36 27 354 351 356 359 351 344 343 341 338 338 334 331 326 321 321 319 320 325 324 320 318 316 311 298 290 275 253 236 231 226 221 214 209 205 197 193 188 188 192 193 195 198 199 205 211 216 218 215 212 212 216 221 221 222 226 225
345 301 37 64 341 200 164 244 232 175 269 262 319 304 321 346 315 296 274 294 315 298 301 299 312 300 311 312 7 339 335 341 350 345 342 345 343 341 338 335 332 327 325 324 324 325 324 326 325 322 319 318 315 312 297 288 273 252 234 230 227 220 210 202 195 192 187 186 187 190 193 195 198 202 209 212 216 213 213 215 217 216 219 219 216 222
263 282 314 153 280 342 215 214 338 100 164 299 278 239 68 232 240 279 304 306 277 280 296 306 341 299 312 348 337 324 329 338 340 337 338 338 339 339 338 336 333 329 324 322 322 325 326 326 325 321 317 318 317 310 308 296 276 257 245 233 229 228 215 201 194 188 188 187 183 181 184 192 196 199 203 209 207 211 212 215 218 220 217 218 221 224
296 202 282 328 191 278 309 157 322 343 323 197 230 310 173 227 130 281 264 246 278 295 295 306 303 294 297 323 318 320 327 336 338 339 337 337 340 341 337 333 329 324 324 326 327 324 324 324 324 323 317 307 299 291 282 270 263 262 254 243 233 224 216 207 198 190 191 182 184 178 185 188 192 197 199 204 206 210 213 216 217 216 215 214 218 219
283 264 281 302 314 318 320 88 30 28 28 327 333 302 323 313 310 306 302 79 9 296 297 308 290 287 285 299 308 313 323 326 338 342 340 342 342 335 328 325 328 328 329 331 329 329 326 325 325 322 316 300 287 286 288 275 258 252 248 243 235 229 224 214 202 194 188 182 180 181 183 187 190 194 194 199 204 210 212 215 215 214 210 213 216 218
324 312 283 289 298 292 329 117 55 74 223 267 274 295 335 298 267 281 300 327 331 266 127 260 276 269 277 292 311 319 321 326 341 350 343 339 332 328 325 325 327 331 335 334 334 335 334 332 331 330 328 322 306 292 294 282 251 248 246 242 233 224 225 216 210 196 189 182 180 183 181 186 191 190 194 197 203 208 211 212 216 209 208 210 217 216
19 258 282 283 283 252 94 95 115 116 172 220 218 228 256 273 291 277 282 318 287 286 278 275 249 275 295 315 323 330 326 331 346 348 342 332 327 324 325 328 331 335 341 340 342 339 337 335 333 332 333 332 332 330 324 301 272 250 241 237 231 229 225 216 207 192 187 183 182 180 182 189 191 191 192 197 203 206 208 209 212 209 206 210 214 216
299 99 332 306 318 326 222 146 129 148 228 319 320 279 204 92 78 62 293 255 262 257 261 276 275 275 288 309 315 317 326 336 341 340 336 330 328 327 327 330 336 340 336 334 334 335 335 336 339 337 334 334 333 330 327 319 300 268 251 238 231 231 220 213 202 189 189 186 182 184 186 191 190 193 195 197 200 204 205 206 208 206 204 207 213 215
262 291 314 328 336 333 336 342 346 333 336 319 293 212 204 184 175 243 276 262 267 278 267 256 267 274 295 306 308 317 328 332 337 335 332 330 330 330 329 335 339 335 332 331 331 333 336 334 332 335 336 333 331 328 325 321 286 269 254 242 237 230 219 209 200 190 185 187 187 191 192 192 192 195 196 196 200 202 202 202 204 203 203 205 213 213
287 299 246 259 287 299 300 302 300 315 308 308 297 289 281 163 195 230 270 274 264 298 291 272 272 288 296 309 314 319 328 334 335 332 331 332 332 330 333 334 331 328 329 333 332 332 332 332 334 334 334 332 329 328 324 324 319 302 256 248 230 225 220 214 194 189 188 190 195 198 197 194 195 193 194 195 198 198 198 199 198 201 203 200 206 212
267 278 245 227 241 257 279 287 293 303 288 283 285 290 296 171 166 174 226 259 300 313 282 277 295 299 298 305 308 317 326 333 330 326 326 328 330 328 331 328 324 325 328 331 332 335 334 331 329 330 331 329 327 324 325 324 319 306 284 257 239 220 217 210 200 197 197 196 200 205 202 198 194 192 193 193 195 197 195 194 196 197 198 198 201 209
315 293 65 104 240 257 274 277 279 280 266 261 267 279 287 282 160 207 217 242 262 248 259 281 293 293 294 300 303 309 325 329 324 321 318 315 317 324 324 322 322 325 330 332 332 332 331 327 326 324 325 326 328 329 329 328 326 315 263 225 233 229 216 208 203 206 205 204 205 208 203 195 192 192 190 190 192 194 193 192 192 190 191 194 200 207
285 250 8 207 277 266 262 266 264 253 265 268 260 265 273 274 257 212 239 248 240 241 250 267 279 281 284 287 296 309 325 322 317 316 319 321 320 315 316 316 319 324 328 330 329 329 328 325 322 322 322 324 328 330 330 329 327 325 316 280 254 237 223 202 213 213 211 212 211 207 199 192 188 189 187 188 191 191 190 189 187 188 189 193 198 202
211 313 55 321 299 293 274 259 221 237 254 272 286 284 283 280 274 263 244 250 248 256 257 259 267 275 278 279 296 322 319 313 314 319 320 318 319 314 311 313 319 325 327 326 326 325 325 324 323 324 325 327 329 330 330 327 323 320 317 298 279 257 226 207 217 220 220 222 216 206 197 191 190 186 187 188 188 188 187 187 183 185 188 190 195 201
262 287 114 258 311 305 321 342 318 301 284 276 279 280 279 296 304 283 215 207 213 251 275 286 282 278 297 325 326 311 312 315 316 319 321 317 314 310 310 315 322 325 324 325 324 323 324 326 326 325 324 325 328 328 329 325 321 320 321 321 313 280 235 220 223 225 226 226 220 209 199 196 189 187 188 187 188 188 185 183 182 182 185 187 192 196
317 309 318 341 318 280 310 327 318 307 292 264 236 284 308 291 272 271 285 198 214 249 283 284 277 298 314 324 312 310 316 322 319 319 318 308 305 305 309 318 324 325 327 325 323 323 323 325 323 321 319 319 322 324 324 320 317 323 327 322 315 304 241 232 232 231 231 227 221 212 203 198 194 192 190 190 186 184 180 179 180 183 184 189 188 192
358 274 287 328 280 288 307 323 308 289 326 340 345 289 245 283 288 290 292 274 262 257 259 257 281 299 309 310 310 315 318 319 319 314 310 294 296 300 318 328 327 326 325 322 320 320 319 319 320 319 317 314 314 317 313 314 312 312 320 317 310 298 270 245 242 236 234 229 221 211 203 203 195 197 195 189 183 179 180 181 184 182 184 181 184 193
282 276 275 317 257 289 314 309 322 331 324 324 321 309 279 259 281 293 291 286 285 283 278 279 282 302 305 303 308 310 308 307 310 310 296 288 285 310 337 332 328 326 322 320 320 320 318 316 316 317 316 319 316 310 313 315 320 316 313 321 316 306 291 266 253 246 242 237 231 215 204 203 201 196 193 190 185 181 183 183 181 180 180 179 184 188
276 250 296 258 253 280 276 311 320 273 318 305 298 325 76 6 272 285 283 276 278 302 298 283 301 302 305 312 315 313 312 315 306 291 278 282 343 355 337 331 326 322 319 318 317 317 318 318 317 314 313 311 308 308 309 308 314 315 308 308 306 296 284 273 260 255 249 245 237 218 202 197 199 196 191 188 184 186 188 184 184 179 175 173 177 184
232 285 251 290 253 264 303 300 269 290 292 283 273 188 197 281 326 330 305 297 301 298 274 279 291 308 316 318 318 316 322 312 295 301 311 16 353 346 337 326 321 317 316 314 314 312 313 313 312 310 308 306 304 305 307 311 315 313 310 307 306 304 289 271 262 260 253 247 236 225 207 197 197 195 189 185 184 187 186 185 184 178 170 170 175 180
229 218 337 318 281 231 294 306 307 311 302 315 69 89 73 63 67 289 277 288 303 315 195 292 307 318 322 320 320 322 317 304 302 312 340 354 343 330 326 321 318 316 315 313 310 309 310 310 310 308 306 303 302 301 302 305 308 308 304 303 302 299 293 280 271 264 259 250 239 217 208 200 199 200 192 183 188 184 187 186 181 177 171 168 171 178
236 271 265 254 269 293 282 276 282 278 263 283 311 87 113 95 180 208 274 288 41 354 300 308 312 318 320 320 320 325 317 310 308 322 343 337 329 327 324 322 322 319 318 315 312 310 312 311 308 303 301 304 305 309 312 310 307 304 300 301 301 303 298 280 271 271 266 256 239 213 203 198 193 188 191 182 172 174 179 182 179 173 161 165 169 173
221 211 217 238 247 240 258 269 272 262 283 290 305 331 103 114 175 286 293 296 51 333 341 329 326 320 319 324 327 323 323 316 323 327 332 327 325 327 328 327 327 326 323 319 318 317 311 305 308 309 309 309 309 311 312 313 305 297 299 293 295 297 298 294 285 280 274 264 235 213 204 195 206 198 179 172 163 173 184 161 154 160 154 164 163 164
190 209 197 243 262 268 239 259 277 272 264 286 331 31 121 226 267 284 292 324 344 332 327 329 329 334 335 341 346 336 335 330 322 321 323 325 328 328 329 327 324 323 322 321 320 317 317 319 318 313 310 308 308 310 309 310 307 300 300 304 302 302 311 312 303 294 286 266 234 221 210 189 202 201 194 172 159 152 160 155 159 148 149 150 151 153
236 174 244 274 263 251 246 253 256 275 287 309 24 143 204 288 306 316 323 324 320 327 336 339 340 350 0 352 344 335 328 326 324 326 331 333 330 328 328 328 326 325 324 322 322 321 318 315 313 312 312 312 310 307 305 304 303 297 295 299 300 302 307 308 303 293 283 267 240 223 202 197 191 203 202 186 163 165 165 151 131 129 139 140 146 154
286 255 280 271 253 241 221 262 297 297 41 90 297 216 160 323 317 323 323 327 347 344 355 357 357 3 353 341 338 333 330 331 332 331 330 328 328 328 327 326 324 322 321 320 318 317 316 313 311 309 308 307 308 307 306 307 307 307 302 297 305 305 303 303 295 283 277 269 256 256 238 232 211 203 195 179 177 177 176 162 131 127 133 141 146 158
90 263 277 290 357 305 297 279 268 296 327 351 334 321 329 333 345 5 357 346 356 0 1 349 350 348 346 340 334 332 329 329 329 330 328 326 325 322 321 319 317 315 313 311 309 309 308 303 302 304 306 306 307 307 307 307 306 304 301 296 304 304 297 295 296 292 283 274 273 272 261 234 218 206 192 172 174 175 170 174 159 139 146 145 153 161
155 224 29 294 316 283 283 283 291 300 301 316 325 346 6 14 13 8 4 355 349 351 351 344 341 343 340 335 330 326 323 324 320 320 318 315 314 314 314 313 311 310 308 307 307 304 302 302 303 303 304 305 305 307 307 305 302 302 302 303 307 302 293 298 298 295 285 282 278 272 264 243 210 184 173 163 172 173 175 174 167 158 151 152 164 170
275 230 35 300 271 265 270 275 288 315 347 345 5 19 6 5 12 2 356 349 345 341 343 336 334 331 329 327 322 317 315 315 314 312 308 306 306 306 305 306 307 306 306 306 305 306 307 306 304 303 303 304 305 305 304 302 300 300 302 306 307 298 297 302 301 295 288 285 282 277 271 255 227 190 164 165 172 180 181 182 172 158 158 169 175 176
55 23 311 280 284 298 289 334 1 352 341 347 357 5 4 353 353 358 345 341 335 333 327 328 326 322 318 316 312 311 309 308 304 301 299 300 300 300 301 300 301 304 306 306 308 311 311 310 309 308 307 307 306 303 303 302 303 300 303 305 304 300 301 301 296 292 287 285 284 282 274 252 223 162 160 165 166 181 182 181 178 173 172 173 172 174
321 35 315 306 313 303 304 352 1 344 346 348 349 341 343 345 339 346 336 329 324 322 319 318 317 312 314 311 312 308 303 302 299 298 300 301 304 301 299 302 304 306 309 309 310 314 312 310 309 309 308 306 308 306 302 301 302 302 303 303 302 299 298 294 291 289 290 286 286 284 273 262 203 174 161 180 177 178 177 179 183 187 188 180 177 172
312 294 311 343 310 310 316 358 348 341 338 346 336 343 341 340 336 334 336 328 321 321 319 316 315 313 311 307 308 305 302 298 297 299 302 304 304 301 297 300 305 308 309 310 310 310 309 310 309 309 307 307 307 306 304 303 304 306 306 305 302 301 297 296 293 290 285 282 273 272 260 241 204 190 178 168 185 191 187 182 186 195 199 197 167 167
355 5 336 335 335 334 345 344 347 340 330 327 329 329 331 329 326 324 324 321 321 318 319 317 313 310 306 304 303 302 300 301 300 301 298 299 300 303 307 309 309 307 307 306 306 308 308 307 308 309 309 308 309 307 307 307 306 305 305 303 301 299 297 295 292 289 286 287 278 266 266 243 207 185 192 192 190 192 194 202 204 202 196 193 195 190
21 1 3 356 341 321 331 331 328 315 303 309 314 321 320 318 319 320 319 315 314 313 314 313 310 306 301 298 293 292 294 297 299 301 304 304 305 304 301 303 306 306 305 306 307 308 311 312 312 311 310 309 309 308 307 307 306 306 305 302 300 299 294 292 290 286 281 279 263 265 254 225 197 190 189 194 189 177 174 178 210 214 213 206 194 199